User: anonymous   Login
Location: Montauk Point State Park
(41.0718°N, 71.8593°W)
Time: 17:09:20
(UTC-04:00)
Language:

Cosmos 1844 - Orbit

View from above orbital plane
View from above orbital plane
View from above satellite
View from above satellite

Ground track
Ground track

The orbit data is extracted from the following two-line orbital elements,

1 17973U 87041A   17295.53334123  .00000095  00000-0  74944-4 0  9991
2 17973  70.8999   5.1811 0033036 292.8689  66.8945 14.14049784571144
Epoch (UTC): 22 October 2017 12:48:00
Eccentricity: 0.0033036
inclination: 70.8999°
perigee height: 821 km
apogee height: 869 km
right ascension of ascending node: 5.1811°
argument of perigee: 292.8689°
revolutions per day: 14.14049784
mean anomaly at epoch: 66.8945°
orbit number at epoch: 57114

The dashed part of the orbit path shows where the satellite is in the earth's shadow,  

DLR